This is the latest recevied weather packets stored in our database for station/object KD8DLP-13. If no packets are shown the sender has not sent any weather packets the latest 10 day(s).
| Time | Temp. | Humidity | Pressure | Rain* | Wind** | Luminosity | Snow |
|---|---|---|---|---|---|---|---|
| 1778035880 | 6.67° C | 71% | 1011.1 hPa | 0 mm | - | 0 W/m² | - |
| 1778035578 | 6.67° C | 68% | 1010.8 hPa | 0 mm | - | 0 W/m² | - |
| 1778035273 | 6.67° C | 69% | 1010.9 hPa | 0 mm | - | 0 W/m² | - |
| 1778034970 | 6.11° C | 69% | 1010.8 hPa | 0 mm | - | 0 W/m² | - |
| 1778034667 | 6.11° C | 69% | 1010.6 hPa | 0 mm | - | 0 W/m² | - |
| 1778034365 | 6.67° C | 68% | 1010.4 hPa | 0 mm | - | 0 W/m² | - |
| 1778034062 | 6.67° C | 67% | 1010.6 hPa | 0 mm | - | 0 W/m² | - |
| 1778033760 | 6.67° C | 68% | 1010.3 hPa | 0 mm | - | 0 W/m² | - |
| 1778033456 | 6.67° C | 70% | 1010.3 hPa | 0 mm | - | 0 W/m² | - |
| 1778033154 | 6.67° C | 68% | 1010.4 hPa | 0 mm | - | 0 W/m² | - |
| 1778032851 | 6.67° C | 66% | 1010.3 hPa | 0 mm | - | 0 W/m² | - |
| 1778032549 | 7.22° C | 66% | 1010.3 hPa | 0 mm | - | 0 W/m² | - |
| 1778032245 | 7.22° C | 66% | 1010.3 hPa | 0 mm | - | 0 W/m² | - |
| 1778031943 | 7.22° C | 66% | 1010.2 hPa | 0 mm | - | 0 W/m² | - |
| 1778031638 | 7.78° C | 65% | 1010.3 hPa | 0 mm | - | 0 W/m² | - |
| 1778031337 | 7.78° C | 64% | 1010 hPa | 0 mm | - | 0 W/m² | - |
| 1778031033 | 8.33° C | 62% | 1010.2 hPa | 0 mm | - | 0 W/m² | - |
| 1778030729 | 8.33° C | 57% | 1009.9 hPa | 0 mm | - | 0 W/m² | - |
| 1778030426 | 8.33° C | 58% | 1009.8 hPa | 0 mm | - | 0 W/m² | - |
| 1778030124 | 8.89° C | 57% | 1010.1 hPa | 0 mm | - | 0 W/m² | - |
| 1778029820 | 8.89° C | 57% | 1010 hPa | 0 mm | - | 0 W/m² | - |
| 1778029519 | 8.89° C | 59% | 1009.8 hPa | 0 mm | - | 0 W/m² | - |
| 1778029215 | 8.89° C | 58% | 1010 hPa | 0 mm | - | 0 W/m² | - |
| 1778028912 | 8.89° C | 57% | 1009.9 hPa | 0 mm | - | 1 W/m² | - |
| 1778028608 | 9.44° C | 54% | 1009.8 hPa | 0 mm | - | 2 W/m² | - |
* Rain latest hour (hover to see other rain measurements)
** Current wind speed in m/s (hover to see current wind gust speed)